West Plains, MO

2:55 PM CDT on September 24, 2017 (GMT -0500)
West Plains Municipal

Weather History for KUNO - September, 2012

Change the Weather History Date:

Friday, September 21, 2012

  Actual Average Record
Temperature  
Mean Temperature 68 °F 67 °F  
Max Temperature 82 °F 79 °F 95 °F (1955)
Min Temperature 54 °F 55 °F 35 °F (1991)
Degree Days  
Heating Degree Days 0 2  
Month to date heating degree days 22 11  
Since 1 July heating degree days 22 12  
Cooling Degree Days 3 3  
Month to date cooling degree days 125 134  
Year to date cooling degree days 1694 1306  
Growing Degree Days 18 (Base 50)    
Moisture  
Dew Point 55 °F    
Average Humidity 69    
Maximum Humidity 93    
Minimum Humidity 45    
Precipitation  
Precipitation 1.39 in 0.12 in 1.55 in (1965)
Month to date precipitation 3.60 2.88  
Year to date precipitation 24.48 32.95  
Sea Level Pressure  
Sea Level Pressure 29.95 in    
Wind  
Wind Speed 8 mph (SSW)    
Max Wind Speed 18 mph    
Max Gust Speed 24 mph    
Visibility 8 miles    
Events Rain , Thunderstorm    
T = Trace of Precipitation, MM = Missing Value Source: NWS Daily Summary

Daily Weather History Graph

Daily Weather History Graph

Search for Another Location

Airport or City:

Trip Planner

Search our weather history database for the weather conditions in past years. The results will help you decide how hot, cold, wet, or windy it might be!

Date:

Astronomy

Sep. 21, 2012 Rise Set
Actual Time 6:55 AM CDT 7:05 PM CDT
Civil Twilight 6:29 AM CDT 7:31 PM CDT
Nautical Twilight 5:58 AM CDT 8:01 PM CDT
Astronomical Twilight 5:28 AM CDT 8:31 PM CDT
Moon 1:07 PM CDT (9/21) 11:15 PM CDT (9/21)
Length of Visible Light 13h 01m
Length of Day
12h 10m
Waxing Crescent, 37% of the Moon is Illuminated
Sep 21
Waxing Crescent
Sep 22
First Quarter
Sep 29
Full
Oct 8
Last Quarter
Oct 15
New

Hourly Weather History & Observations

Time (CDT) Temp. Heat Index Dew Point Humidity Pressure Visibility Wind Dir Wind Speed Gust Speed Precip Events Conditions
12:53 AM 55.0 °F - 48.0 °F 77% 30.00 in 10.0 mi Calm Calm - N/A   Partly Cloudy
1:53 AM 57.0 °F - 50.0 °F 77% 29.98 in 10.0 mi NE 5.8 mph - N/A   Mostly Cloudy
2:09 AM 57.2 °F - 50.0 °F 77% 30.01 in 10.0 mi Calm Calm - 0.00 in Thunderstorm Mostly Cloudy
2:24 AM 59.0 °F - 48.2 °F 67% 30.00 in 10.0 mi Calm Calm - 0.00 in   Mostly Cloudy
2:53 AM 57.9 °F - 50.0 °F 75% 29.96 in 10.0 mi ESE 4.6 mph - 0.00 in   Mostly Cloudy
3:07 AM 60.8 °F - 48.2 °F 63% 30.01 in 10.0 mi North 5.8 mph - N/A Thunderstorm Overcast
3:53 AM 55.0 °F - 52.0 °F 89% 30.00 in 2.5 mi South 4.6 mph - 0.18 in Rain , Thunderstorm Heavy Thunderstorms and Rain
4:05 AM 55.4 °F - 48.2 °F 77% 30.01 in 1.8 mi Variable 5.8 mph - 0.23 in Rain , Thunderstorm Heavy Thunderstorms and Rain
4:22 AM 55.4 °F - 50.0 °F 82% 30.01 in 1.0 mi NE 12.7 mph 17.3 mph 0.62 in Rain , Thunderstorm Heavy Thunderstorms and Rain
4:28 AM 55.4 °F - 51.8 °F 88% 30.02 in 2.5 mi Calm Calm - 0.65 in Rain , Thunderstorm Thunderstorms and Rain
4:38 AM 55.4 °F - 51.8 °F 88% 30.02 in 1.2 mi South 9.2 mph - 0.89 in Rain , Thunderstorm Heavy Thunderstorms and Rain
4:48 AM 53.6 °F - 51.8 °F 94% 30.03 in 2.0 mi Variable 3.5 mph - 0.96 in Rain , Thunderstorm Thunderstorms and Rain
4:53 AM 54.0 °F - 52.0 °F 93% 30.01 in 4.0 mi ENE 3.5 mph - 0.98 in Rain , Thunderstorm Thunderstorms and Rain
5:53 AM 55.9 °F - 53.1 °F 90% 29.99 in 6.0 mi ENE 3.5 mph 16.1 mph 0.15 in Rain , Thunderstorm Light Rain
6:02 AM 55.4 °F - 53.6 °F 94% 30.01 in 10.0 mi NNE 8.1 mph - 0.00 in Rain , Thunderstorm Light Rain
6:07 AM 55.4 °F - 53.6 °F 94% 30.01 in 10.0 mi NE 5.8 mph - 0.00 in Rain Light Rain
6:21 AM 55.4 °F - 53.6 °F 94% 30.00 in 6.0 mi East 4.6 mph - 0.02 in Rain Light Rain
6:32 AM 55.4 °F - 55.4 °F 100% 30.00 in 8.0 mi ENE 4.6 mph - 0.03 in Rain , Thunderstorm Light Rain
6:53 AM 55.0 °F - 54.0 °F 96% 29.97 in 7.0 mi NE 4.6 mph - 0.05 in Rain Light Rain
7:04 AM 55.4 °F - 53.6 °F 94% 29.98 in 7.0 mi ESE 4.6 mph - 0.01 in Rain , Thunderstorm Light Rain
7:39 AM 60.8 °F - 57.2 °F 88% 29.97 in 10.0 mi South 8.1 mph - 0.02 in   Overcast
7:53 AM 61.0 °F - 59.0 °F 93% 29.95 in 10.0 mi South 6.9 mph - 0.02 in   Overcast
8:53 AM 63.0 °F - 60.1 °F 90% 29.95 in 10.0 mi South 10.4 mph - N/A   Mostly Cloudy
9:53 AM 66.0 °F - 60.1 °F 81% 29.94 in 10.0 mi South 10.4 mph - N/A   Clear
10:53 AM 70.0 °F - 60.1 °F 71% 29.93 in 10.0 mi SSW 10.4 mph 18.4 mph 0.01 in   Clear
11:53 AM 72.0 °F - 60.1 °F 66% 29.91 in 10.0 mi SSW 16.1 mph 23.0 mph N/A   Clear
12:53 PM 73.9 °F - 61.0 °F 64% 29.88 in 10.0 mi SSW 13.8 mph 21.9 mph N/A   Clear
1:53 PM 75.9 °F - 63.0 °F 64% 29.86 in 10.0 mi SW 12.7 mph 19.6 mph N/A   Clear
2:53 PM 79.0 °F - 63.0 °F 58% 29.83 in 10.0 mi SW 15.0 mph 20.7 mph N/A   Clear
3:53 PM 81.0 °F 82.5 °F 64.0 °F 56% 29.82 in 10.0 mi West 11.5 mph - N/A   Clear
4:53 PM 82.0 °F 83.1 °F 63.0 °F 52% 29.81 in 10.0 mi West 9.2 mph - N/A   Partly Cloudy
5:53 PM 80.1 °F 80.6 °F 57.9 °F 47% 29.83 in 10.0 mi West 9.2 mph - N/A   Clear
6:53 PM 75.0 °F - 54.0 °F 48% 29.85 in 10.0 mi West 6.9 mph - N/A   Clear
7:53 PM 70.0 °F - 54.0 °F 57% 29.87 in 10.0 mi West 4.6 mph - N/A   Clear
8:53 PM 66.9 °F - 55.0 °F 66% 29.89 in 10.0 mi West 3.5 mph - N/A   Clear
9:53 PM 69.1 °F - 51.1 °F 53% 29.91 in 10.0 mi WNW 6.9 mph - N/A   Clear
10:53 PM 66.0 °F - 51.1 °F 59% 29.92 in 10.0 mi West 4.6 mph - N/A   Clear
11:53 PM 64.9 °F - 48.9 °F 56% 29.94 in 10.0 mi WNW 5.8 mph - N/A   Clear